TimeCST,TemperatureF,Dew PointF,Humidity,Sea Level PressureIn,VisibilityMPH,Wind Direction,Wind SpeedMPH,Gust SpeedMPH,PrecipitationIn,Events,Conditions,WindDirDegrees,DateUTC
12:15 AM,21.2,6.8,54,30.03,10.0,ESE,4.6,-,N/A,,Clear,110,2013-03-04 06:15:00
12:35 AM,21.2,8.6,58,30.04,10.0,ESE,3.5,-,N/A,,Clear,110,2013-03-04 06:35:00
12:55 AM,21.2,8.6,58,30.04,10.0,ESE,5.8,-,N/A,,Mostly Cloudy,110,2013-03-04 06:55:00
1:15 AM,21.2,8.6,58,30.05,10.0,ESE,4.6,-,N/A,,Overcast,110,2013-03-04 07:15:00
1:35 AM,21.2,8.6,58,30.05,10.0,ESE,3.5,-,N/A,,Scattered Clouds,110,2013-03-04 07:35:00
1:55 AM,21.2,8.6,58,30.04,10.0,ESE,4.6,-,N/A,,Scattered Clouds,120,2013-03-04 07:55:00
2:15 AM,19.4,8.6,63,30.04,10.0,East,4.6,-,N/A,,Scattered Clouds,100,2013-03-04 08:15:00
2:35 AM,19.4,8.6,63,30.03,10.0,ESE,5.8,-,N/A,,Scattered Clouds,110,2013-03-04 08:35:00
2:55 AM,19.4,8.6,63,30.03,10.0,ESE,5.8,-,N/A,,Mostly Cloudy,110,2013-03-04 08:55:00
3:15 AM,19.4,8.6,63,30.03,10.0,ESE,6.9,-,N/A,,Overcast,110,2013-03-04 09:15:00
3:35 AM,19.4,6.8,58,30.02,10.0,ESE,6.9,-,N/A,,Overcast,110,2013-03-04 09:35:00
3:55 AM,19.4,5.0,54,30.02,10.0,ESE,5.8,-,N/A,,Overcast,110,2013-03-04 09:55:00
4:15 AM,19.4,5.0,54,30.02,10.0,ESE,6.9,-,N/A,,Overcast,120,2013-03-04 10:15:00
4:35 AM,19.4,5.0,54,30.02,10.0,ESE,6.9,-,N/A,,Overcast,110,2013-03-04 10:35:00
4:55 AM,19.4,3.2,49,30.01,10.0,ESE,5.8,-,N/A,,Overcast,120,2013-03-04 10:55:00
5:15 AM,19.4,3.2,49,30.01,10.0,ESE,4.6,-,N/A,,Overcast,110,2013-03-04 11:15:00
5:35 AM,21.2,3.2,46,30.01,10.0,ESE,5.8,-,N/A,,Overcast,110,2013-03-04 11:35:00
6:15 AM,21.2,3.2,46,30.02,10.0,ESE,4.6,-,N/A,,Overcast,120,2013-03-04 12:15:00
6:35 AM,21.2,3.2,46,30.02,10.0,ESE,4.6,-,N/A,,Overcast,120,2013-03-04 12:35:00
6:55 AM,21.2,3.2,46,30.01,10.0,ESE,5.8,-,N/A,,Overcast,110,2013-03-04 12:55:00
7:15 AM,21.2,5.0,50,30.02,10.0,ESE,4.6,-,N/A,,Overcast,110,2013-03-04 13:15:00
7:35 AM,21.2,5.0,50,30.03,10.0,ESE,5.8,-,N/A,,Overcast,110,2013-03-04 13:35:00
7:55 AM,23.0,5.0,46,30.03,10.0,ESE,6.9,-,N/A,,Overcast,120,2013-03-04 13:55:00
8:15 AM,23.0,5.0,46,30.03,10.0,SE,8.1,-,N/A,,Overcast,140,2013-03-04 14:15:00
8:35 AM,24.8,5.0,43,30.03,10.0,SE,9.2,-,N/A,,Overcast,140,2013-03-04 14:35:00
8:55 AM,26.6,5.0,40,30.03,10.0,SSE,6.9,-,N/A,,Overcast,150,2013-03-04 14:55:00
9:15 AM,26.6,5.0,40,30.03,10.0,SE,6.9,-,N/A,,Overcast,140,2013-03-04 15:15:00
9:35 AM,26.6,5.0,40,30.03,10.0,SSE,10.4,-,N/A,,Overcast,160,2013-03-04 15:35:00
9:55 AM,28.4,5.0,37,30.03,10.0,SSE,15.0,20.7,N/A,,Overcast,150,2013-03-04 15:55:00
10:15 AM,28.4,5.0,37,30.03,10.0,SSE,8.1,-,N/A,,Overcast,150,2013-03-04 16:15:00
10:35 AM,28.4,5.0,37,30.03,10.0,SE,10.4,17.3,N/A,,Overcast,140,2013-03-04 16:35:00
10:55 AM,28.4,6.8,40,30.03,10.0,SSE,10.4,-,N/A,,Overcast,150,2013-03-04 16:55:00
11:15 AM,28.4,5.0,37,30.03,10.0,SSE,12.7,19.6,N/A,,Overcast,160,2013-03-04 17:15:00
11:55 AM,28.4,5.0,37,30.02,10.0,ESE,9.2,-,N/A,,Overcast,120,2013-03-04 17:55:00
12:15 PM,30.2,5.0,34,30.01,10.0,SE,10.4,16.1,N/A,,Overcast,140,2013-03-04 18:15:00
12:55 PM,30.2,5.0,34,30.00,10.0,SE,9.2,17.3,N/A,,Overcast,130,2013-03-04 18:55:00
1:15 PM,30.2,6.8,37,30.00,10.0,SSE,9.2,16.1,N/A,,Overcast,150,2013-03-04 19:15:00
1:35 PM,30.2,8.6,40,30.00,10.0,SE,6.9,18.4,N/A,,Overcast,130,2013-03-04 19:35:00
1:55 PM,30.2,12.2,47,30.00,10.0,South,9.2,17.3,N/A,,Overcast,170,2013-03-04 19:55:00
2:15 PM,30.2,12.2,47,29.99,10.0,SSE,8.1,16.1,N/A,,Overcast,150,2013-03-04 20:15:00
2:35 PM,30.2,12.2,47,30.00,10.0,SSE,10.4,17.3,N/A,,Overcast,160,2013-03-04 20:35:00
2:55 PM,30.2,14.0,51,29.99,10.0,SE,13.8,20.7,N/A,Rain,Freezing Rain,140,2013-03-04 20:55:00
3:15 PM,30.2,17.6,60,30.00,7.0,SSE,10.4,-,N/A,Snow,Light Snow,150,2013-03-04 21:15:00
3:35 PM,28.4,17.6,64,29.99,10.0,ESE,10.4,-,N/A,Snow,Light Snow,120,2013-03-04 21:35:00
3:55 PM,30.2,14.0,51,30.00,10.0,SE,11.5,18.4,N/A,,Overcast,140,2013-03-04 21:55:00
4:15 PM,30.2,14.0,51,30.00,10.0,SE,11.5,17.3,N/A,Snow,Light Snow,140,2013-03-04 22:15:00
4:35 PM,30.2,14.0,51,30.00,10.0,SSE,11.5,19.6,N/A,Snow,Light Snow,150,2013-03-04 22:35:00
4:55 PM,30.2,12.2,47,30.00,10.0,SE,9.2,-,N/A,,Overcast,140,2013-03-04 22:55:00
5:15 PM,30.2,14.0,51,30.00,10.0,SSE,9.2,18.4,N/A,,Overcast,150,2013-03-04 23:15:00
5:35 PM,30.2,14.0,51,30.00,10.0,SE,11.5,16.1,N/A,Snow,Light Snow,140,2013-03-04 23:35:00
5:55 PM,30.2,17.6,60,30.01,10.0,SE,8.1,-,N/A,Snow,Light Snow,140,2013-03-04 23:55:00
6:15 PM,28.4,17.6,64,30.01,10.0,SE,10.4,-,N/A,Snow,Light Snow,140,2013-03-05 00:15:00
6:55 PM,28.4,19.4,69,30.02,7.0,SE,6.9,-,N/A,Snow,Light Snow,130,2013-03-05 00:55:00
7:15 PM,28.4,19.4,69,30.02,7.0,SE,9.2,-,N/A,Snow,Light Snow,130,2013-03-05 01:15:00
7:35 PM,28.4,19.4,69,30.01,7.0,SE,9.2,-,N/A,Snow,Light Snow,130,2013-03-05 01:35:00
7:55 PM,28.4,21.2,74,30.02,4.0,SE,6.9,-,N/A,Snow,Light Snow,130,2013-03-05 01:55:00
8:35 PM,26.6,23.0,86,30.03,5.0,SE,6.9,-,N/A,Snow,Light Snow,140,2013-03-05 02:35:00
8:55 PM,26.6,23.0,86,30.04,5.0,ESE,4.6,-,N/A,Snow,Light Snow,120,2013-03-05 02:55:00
9:15 PM,26.6,23.0,86,30.04,5.0,Calm,Calm,-,N/A,Snow,Light Snow,0,2013-03-05 03:15:00
9:35 PM,26.6,23.0,86,30.06,10.0,Calm,Calm,-,N/A,Snow,Light Snow,0,2013-03-05 03:35:00
9:55 PM,26.6,23.0,86,30.06,5.0,Calm,Calm,-,N/A,Snow,Light Snow,0,2013-03-05 03:55:00
10:15 PM,26.6,23.0,86,30.06,7.0,Calm,Calm,-,N/A,Snow,Light Snow,0,2013-03-05 04:15:00
10:35 PM,26.6,23.0,86,30.06,5.0,Calm,Calm,-,N/A,Snow,Light Snow,0,2013-03-05 04:35:00
10:55 PM,26.6,21.2,80,30.06,10.0,SE,3.5,-,N/A,Snow,Light Snow,140,2013-03-05 04:55:00
11:15 PM,26.6,19.4,74,30.05,10.0,SE,6.9,-,N/A,Snow,Light Snow,140,2013-03-05 05:15:00
11:35 PM,26.6,19.4,74,30.05,10.0,SE,6.9,-,N/A,Snow,Light Snow,130,2013-03-05 05:35:00
11:55 PM,26.6,19.4,74,30.05,7.0,SE,4.6,-,N/A,Snow,Light Snow,130,2013-03-05 05:55:00